EW8415 Weather Reports


time (UTC)temp
C
wind
direction
speed
KPH
gust
KPH
rain 1hr
cm
rain 24hr
cm
rain mn
cm
humidity
%
barometer
mb
20260906133023 26 11 0.0 0.0 0.00 0.00 0.00 84 1014.6
20260906131516 25 11 0.0 1.6 0.00 0.00 0.00 85 1014.5
20260906130015 24 11 0.0 1.6 0.00 0.00 0.00 84 1014.4
20260906124514 23 84 0.0 0.0 0.00 0.00 0.00 85 1014.3
20260906123020 22 84 0.0 0.0 0.00 0.00 0.00 85 1014.2
20260906121511 22 84 0.0 0.0 0.00 0.00 0.00 85 1014.1
20260906120010 22 84 0.0 0.0 0.00 0.00 0.00 85 1013.8
20260906114510 22 84 0.0 0.0 0.00 0.00 0.00 85 1013.6
20260906113005 23 84 0.0 0.0 0.00 0.00 0.00 85 1013.4
20260906111504 23 84 0.0 0.0 0.00 0.00 0.00 85 1013.4
20260906110003 23 84 0.0 0.0 0.00 0.00 0.00 85 1013.2
20260906104505 23 84 0.0 0.0 0.00 0.00 0.00 85 1013.1
20260906103103 23 84 0.0 0.0 0.00 0.00 0.00 85 1013.0
20260906101559 23 84 0.0 0.0 0.00 0.00 0.00 85 1013.0
20260906100057 23 84 0.0 0.0 0.00 0.00 0.00 85 1012.8
20260906094557 23 84 0.0 0.0 0.00 0.00 0.00 85 1012.7
20260906093113 23 84 0.0 0.0 0.00 0.00 0.00 85 1012.5
20260906091553 23 84 0.0 0.0 0.00 0.00 0.00 85 1012.4
20260906090054 23 84 0.0 0.0 0.00 0.00 0.00 85 1012.4
20260906084553 23 84 0.0 0.0 0.00 0.00 0.00 85 1012.3
20260906083051 23 84 0.0 0.0 0.00 0.00 0.00 85 1012.3
20260906081551 23 84 0.0 0.0 0.00 0.00 0.00 84 1012.3
20260906080050 24 84 0.0 0.0 0.00 0.00 0.00 84 1012.3
20260906074548 24 84 0.0 0.0 0.00 0.00 0.00 84 1012.2
20260906073047 24 84 0.0 0.0 0.00 0.00 0.00 83 1012.2
20260906071545 24 84 0.0 0.0 0.00 0.00 0.00 83 1012.3
20260906070043 25 84 0.0 0.0 0.00 0.00 0.00 83 1012.4
20260906064542 25 84 0.0 0.0 0.00 0.00 0.00 83 1012.5
20260906063039 25 84 0.0 0.0 0.00 0.00 0.00 83 1012.6
20260906061538 25 84 0.0 1.6 0.00 0.00 0.00 83 1012.8
20260906060037 25 84 0.0 0.0 0.00 0.00 0.00 82 1012.8
20260906054535 25 84 0.0 0.0 0.00 0.00 0.00 82 1012.7
20260906053039 25 84 0.0 0.0 0.00 0.00 0.00 82 1012.7
20260906051533 26 84 0.0 0.0 0.00 0.00 0.00 82 1012.6
20260906050029 26 84 0.0 0.0 0.00 0.00 0.00 81 1012.4
20260906044529 26 84 0.0 0.0 0.00 0.00 0.00 80 1012.1
20260906043030 26 84 0.0 0.0 0.00 0.00 0.00 81 1012.1
20260906041528 26 84 0.0 0.0 0.00 0.00 0.00 80 1012.3
20260906040034 26 84 0.0 0.0 0.00 0.00 0.00 78 1012.3
20260906034535 26 84 0.0 0.0 0.00 0.00 0.00 77 1012.3
20260906033026 27 84 0.0 0.0 0.00 0.00 0.00 75 1012.3
20260906031526 27 84 0.0 0.0 0.00 0.00 0.00 74 1012.5
20260906030026 27 84 0.0 0.0 0.00 0.00 0.00 76 1012.5
20260906024526 28 84 0.0 0.0 0.00 0.00 0.00 75 1012.4
20260906023024 28 84 0.0 0.0 0.00 0.00 0.00 71 1012.4
20260906021526 28 84 0.0 0.0 0.00 0.00 0.00 71 1012.3
20260906020029 29 84 0.0 0.0 0.00 0.00 0.00 70 1012.1
20260906014530 29 84 0.0 0.0 0.00 0.00 0.00 68 1012.0
20260906013029 30 84 0.0 0.0 0.00 0.00 0.00 67 1011.8
20260906011523 30 84 0.0 0.0 0.00 0.00 0.00 62 1011.7
20260906010023 31 84 0.0 0.0 0.00 0.00 0.00 62 1011.5
20260906004522 32 84 0.0 0.0 0.00 0.00 0.00 61 1011.4
20260906003022 33 84 0.0 0.0 0.00 0.00 0.00 57 1011.4
20260906001522 35 84 0.0 0.0 0.00 0.00 0.00 52 1011.3
20260906000023 35 84 0.0 0.0 0.00 0.00 0.00 50 1011.3
20260905234522 36 84 0.0 4.8 0.00 0.00 0.00 48 1011.3
20260905233029 36 84 0.0 8.0 0.00 0.00 0.00 47 1011.1
20260905231520 36 112 1.6 6.4 0.00 0.00 0.00 46 1011.1
20260905230020 36 120 1.6 8.0 0.00 0.00 0.00 45 1011.0
20260905224521 36 157 1.6 6.4 0.00 0.00 0.00 44 1011.0
20260905223019 37 51 1.6 8.0 0.00 0.00 0.00 45 1010.9
20260905221529 37 76 3.2 14.5 0.00 0.00 0.00 45 1011.0
20260905220017 37 67 3.2 14.5 0.00 0.00 0.00 44 1011.1
20260905214515 37 101 1.6 9.7 0.00 0.00 0.00 44 1011.3
20260905213014 37 115 3.2 11.3 0.00 0.00 0.00 41 1011.3
20260905211521 37 53 3.2 11.3 0.00 0.00 0.00 45 1011.4
20260905210014 37 33 4.8 11.3 0.00 0.00 0.00 43 1011.5
20260905204511 37 126 1.6 11.3 0.00 0.00 0.00 43 1011.8
20260905203011 37 46 3.2 11.3 0.00 0.00 0.00 42 1012.1
20260905201506 37 132 3.2 14.5 0.00 0.00 0.00 42 1012.3
20260905200004 37 88 4.8 12.9 0.00 0.00 0.00 43 1012.4
20260905194501 37 116 4.8 12.9 0.00 0.00 0.00 45 1012.7
20260905193111 37 79 6.4 14.5 0.00 0.00 0.00 45 1013.1
20260905191556 37 18 3.2 8.0 0.00 0.00 0.00 46 1013.1
20260905190055 36 169 3.2 8.0 0.00 0.00 0.00 47 1013.3
20260905184556 36 53 4.8 11.3 0.00 0.00 0.00 48 1013.5
20260905183056 36 355 4.8 9.7 0.00 0.00 0.00 48 1013.8
20260905181547 36 236 3.2 8.0 0.00 0.00 0.00 49 1013.9
20260905180045 36 145 6.4 12.9 0.00 0.00 0.00 48 1014.0
20260905174542 36 86 3.2 8.0 0.00 0.00 0.00 50 1014.2
20260905173042 35 103 1.6 8.0 0.00 0.00 0.00 49 1014.4